Kezdőlap
METAR-TAF:

METAR-TAF

Repülőterek :

Forest City, Iowa, Amerikai Egyesült Államok

földrajzi szélesség: 43-14-05N, földrajzi hosszúság: 093-37-27W, magasság: 375 m

Jelenlegi meteorológiai megfigyelések

A jelentés 37 perccel ezelõtt készült, 18:15 UTC
Nyugat-északnyugati szél 8 kt
Hőmérséklet 7°C
Páratartalom 66%
Légköri nyomás 1019 hPa
Látótávolság: 16.1 km
Szórványos felhőzet 3600 lábon
Borult 6500 lábon

METAR: KFXY 181815Z AUTO 29008KT 10SM SCT036 OVC065 07/01 A3010 RMK AO2

Idő: 13:52 (18:52 UTC)


TAF: hiányzik

Meteorológiai megfigyelések és előrejelzések több, mint 4000 repülőtéren (METAR és TAF jelentéseket).

A térképen piros és sárga pontok jelzik az elérhető meteorológiai állomásokat.

Mozgassa az egeret a pont fölött, hogy megjelenjen az állomás neve.

Azután kattintson az időjárási megfigyelések és előrejelzések megtekintéséhez.

A térkép megváltoztatása: kattintson a fekete keresztel jelölt zöld gombra ráközelítéshez, a vonallal jelölt zöld gombra távolításhoz, vagy a zöld nyilakra a szomszédos térképek eléréséhez.


METAR-TAF: